User: anonymous   Login
Location: Fontevrault
(47.1823°N, 0.0493°E)
Time: 20:02:57
(UTC+00:00)
Language:

THORAD AGENA D DEB - Orbit

View from above orbital plane
View from above orbital plane
View from above satellite
View from above satellite

Ground track
Ground track

The orbit data is extracted from the following two-line orbital elements,

1 42545U 70025TB  22022.49743362  .00001868  00000-0  90848-3 0  9995
2 42545  99.9255 100.7063 0007655 208.0104 152.0657 14.19696547835145
Epoch (UTC): 22 January 2022 11:56:18
Eccentricity: 0.0007655
inclination: 99.9255°
perigee height: 821 km
apogee height: 832 km
right ascension of ascending node: 100.7063°
argument of perigee: 208.0104°
revolutions per day: 14.19696547
mean anomaly at epoch: 152.0657°
orbit number at epoch: 83514

The dashed part of the orbit path shows where the satellite is in the earth's shadow,  

DLR